Regional Weather Roundup
Issued by NWS

Home | Current Version | Previous Version | Text Only | Print | Product List | Glossary Off
Versions: 1 2 3 4 5 6 7 8 9 10 11 12 13 14 15 16 17 18 19 20 21 22 23 24 25 26 27 28

000
ASUS45 KBOI 241010
RWRID
WEATHER ROUNDUP FOR IDAHO
NATIONAL WEATHER SERVICE BOISE ID
400 AM MDT FRI OCT 24 2014

NOTE: "FAIR" INDICATES FEW OR NO CLOUDS BELOW 12000 FEET
WITH NO SIGNIFICANT WEATHER AND/OR OBSTRUCTIONS TO VISIBILITY

IDZ012-014-241100-
SOUTHWEST IDAHO


CITY           SKY/WX    TMP DP  RH WIND       PRES   REMARKS
BOISE          LGT RAIN  52  49  89 SE5       30.08F
CALDWELL       CLOUDY    52  43  71 CALM      30.10F
MOUNTAIN HOME  CLOUDY    51  51 100 SW5       30.09S
$$

IDZ016-017-241100-
SOUTHCENTRAL IDAHO


CITY           SKY/WX    TMP DP  RH WIND       PRES   REMARKS
BURLEY         CLOUDY    47  40  76 CALM      30.12S
JEROME         CLOUDY    51  41  68 CALM      30.12S
TWIN FALLS     HAZE      50  40  68 S3        30.12S VSB 1
$$

IDZ019>023-241100-
SOUTHEAST IDAHO


CITY           SKY/WX    TMP DP  RH WIND       PRES   REMARKS
IDAHO FALLS    CLOUDY    52  36  54 SW13      30.13F
POCATELLO      CLOUDY    49  39  68 SW3       30.14S
REXBURG        CLOUDY    51  33  50 S10G20    30.11S
$$

IDZ006-010-011-018-031-032-241100-
CENTRAL IDAHO MOUNTAINS


CITY           SKY/WX    TMP DP  RH WIND       PRES   REMARKS
MCCALL         CLOUDY    41  40  96 CALM      30.09S
HAILEY         CLOUDY    45  43  93 SE3       30.14F
STANLEY          N/A     40  39  97 CALM      30.13F
SALMON         CLOUDY    48  41  76 CALM      30.04R
CHALLIS        MOCLDY    48  37  65 CALM      30.07R
$$

IDZ002-004-006-007-026-241100-
NORTHERN IDAHO


CITY           SKY/WX    TMP DP  RH WIND       PRES   REMARKS
LEWISTON       CLOUDY    50  48  93 CALM      30.07R
LOWELL           N/A     50  49  96 CALM      30.09R
COEUR D`ALENE  CLOUDY    45  39  81 CALM      30.03S
MULLAN PASS    CLOUDY    33  31  92 VRB7      30.02R WCI  27
$$



USA.gov is the U.S. government's official web portal to all federal, state and local government web resources and services.